Mt Hood
Mt. Hood Meadows - Cascade Express
Latest observation 08/31 19:00 PDT
| Time (PDT) | Temp °F 7300' | RH % 7300' | Min mph 7300' | Spd mph 7300' | Gust mph 7300' | Dir ° 7300' |
|---|---|---|---|---|---|---|
| 08/31 19:00 | 56 | 41 | 0 | 1 | 9 | 132 |
| 08/31 18:00 | 59 | 39 | 0 | 4 | 14 | 139 |
| 08/31 17:00 | 60 | 32 | 0 | 4 | 20 | 96 |
| 08/31 16:00 | 59 | 30 | 0 | 5 | 19 | 77 |
| 08/31 15:00 | 60 | 29 | 0 | 5 | 17 | 86 |
| 08/31 14:00 | 59 | 27 | 0 | 5 | 16 | 99 |
| 08/31 13:00 | 66 | 19 | 0 | 3 | 16 | 145 |
| 08/31 12:00 | 64 | 19 | 0 | 4 | 14 | 148 |
| 08/31 11:00 | 64 | 17 | 0 | 3 | 15 | 141 |
| 08/31 10:00 | 61 | 21 | 0 | 3 | 17 | 126 |
| 08/31 09:00 | 60 | 21 | 0 | 3 | 19 | 157 |
| 08/31 08:00 | 59 | 23 | 0 | 2 | 13 | 213 |
| 08/31 07:00 | 52 | 31 | 0 | 3 | 12 | 215 |
| 08/31 06:00 | 49 | 33 | 0 | 3 | 16 | 227 |
| 08/31 05:00 | 48 | 37 | 0 | 2 | 8 | 213 |
| 08/31 04:00 | 45 | 45 | 0 | 0 | 4 | 204 |
| 08/31 03:00 | 46 | 46 | 0 | 0 | 2 | 231 |
| 08/31 02:00 | 46 | 57 | 0 | 0 | 0 | 232 |
| 08/31 01:00 | 50 | 45 | 0 | 1 | 7 | 242 |
| 08/31 00:00 | 48 | 56 | 0 | 0 | 1 | 242 |
| 08/30 23:00 | 50 | 54 | 0 | 0 | 0 | 303 |
| 08/30 22:00 | 49 | 57 | 0 | 1 | 8 | 343 |
| 08/30 21:00 | 50 | 56 | 0 | 2 | 10 | 320 |
| 08/30 20:00 | 49 | 59 | 0 | 0 | 4 | 216 |

